Showing default

GCOM-C, 43065

Orbit data source: Space-Track

GCOM-C, 43065 is a payload satellite owned by JAXA (JP) in SSO that was launched on Sat, 23 Dec 2017 UTC via an H-IIA 202 launch vehicle from the Tanegashima Space Center (TNSTA). Payload-class satellites include a variety of spacecraft equipped with specific instruments for various scientific and technological missions. These include communications satellites like Starlink; space stations such as the ISS; scientific satellites like the Hubble; Earth observation satellites from companies like Planet Labs, Umbra, and HawkEye 360; GPS; miniature CubeSats for education and research; and military/defense satellites.

Loading next visibility...
Identifier
43065, 2017-082A
Orbit
SSO
Country
Flag of JPJP / JPN
Related business
Manufacturer
NEC Toshiba/Fuchu
Mission
Operational Civil Imaging
Bus & Motor
GCOM, AOCS
Mass
2,093 kg wet, 1,917 kg dry
Launch date (UTC)
2017-12-23 (8 years ago)
Launch vehicle
H-IIA 202
Launch site
Tanegashima Space Center (TNSTA)
Object type
Payload
Rocket body
Debris
Shape & HBR
Box + 2 Pan + 1 Dish, 8.6 m
Radar Cross Section
24.018 m², Large (>1 m²)

Expand to show TLE details & history
Last TLE update: 11 hours ago

TLE from 11 hours ago
0 GCOM-C
1 43065U 17082A   25305.59187181  .00000211  00000-0  10448-3 0  9995
2 43065  98.6544  16.9554 0001158  99.2310 260.9002 14.27253867409473
Epoch: 2025-11-01T14:12Z
TLE epoch observation values (Epoch: 2025-11-01T14:12:17.724Z)
Latitude
0.00001°
Longitude
122.7618°
Altitude
803.982 km
Speed
7.451 km/s
True Right ascension
01h 07m 49s
True Declination
0° 00' 00"
Sunlit
Object was in full shadow at epoch
Visualization orbit readout
Latitude
Unknown
Longitude
Unknown
Altitude
Unknown
Speed
Unknown
Apparent Right ascension
Unknown
Apparent Declination
Unknown
Sunlit
N/A
Visualization observer readout
Local Sidereal Time
21:07:16
Azimuth
Unknown
Elevation
Unknown
Doppler factor
Unknown
Orbital elements
Apogee altitude
798.902 km
Perigee altitude
797.24 km
Semi-major axis
7,176.208 km
Eccentricity
0.00012
Inclination
98.6544°
RAAN
16.9554°
Arg. of periapsis
99.231°
True anomaly
260.8871°
Mean anomaly
260.9002°
Eccentric anomaly
260.89365°
Mean motion
3.57027 °/min
Orbital period
100.83 mins
BSTAR
0.00010448
Loading maneuver chart data...
Computing Atmospheric mass density...
Loading historical data...
Loading historical data...
Loading historical data...
Loading historical data...
Loading historical data...
Loading historical data...
Loading historical data...
Other satellites on launch #82 in the year 2017 (2017-12-23 UTC)

Documentation

Showing up to 5 results
|